Temperature
24 23 22 21 21 21 20 20 20 20 19 19 18 18 18 18 18 18 18 18 18 17 18 17 17 17 17 17 17 17 17 17 17 17 17 17 17 17 17 17 17 17 17
25 23 22 22 21 21 21 21 20 20 20 19 19 18 18 18 18 18 18 18 18 18 17 17 17 17 17 17 17 17 17 17 17 17 17 18 18 17 17 17 17 17 17
25 24 23 22 21 21 21 21 21 20 20 19 19 18 18 18 18 18 18 18 18 18 18 17 17 17 17 17 17 17 17 17 17 17 17 18 18 18 17 17 17 17 17
25 24 23 23 22 22 21 21 21 20 20 20 19 18 18 18 18 18 18 18 18 18 18 17 17 17 17 17 17 17 17 17 17 17 17 17 17 17 17 17 17 17 16
26 25 24 23 22 22 21 21 21 20 20 20 19 19 18 18 18 18 18 18 18 18 17 17 17 17 17 17 17 17 17 17 17 17 17 17 17 17 17 17 16 16 16
26 25 24 23 22 22 21 21 21 20 20 20 19 19 18 18 18 18 18 18 18 17 17 17 17 17 17 17 17 17 17 17 17 17 16 16 17 17 17 16 16 16 16
25 24 24 23 22 22 22 21 21 20 20 20 19 19 19 18 18 18 18 18 18 18 18 17 17 17 17 17 17 17 17 17 17 17 16 16 16 16 16 16 16 16 16
25 25 24 23 22 22 22 21 21 21 20 20 20 19 19 18 18 18 18 18 18 18 18 17 17 17 17 17 17 17 17 17 17 16 16 16 16 16 16 16 16 16 16
25 24 24 23 23 22 22 21 21 21 20 20 20 19 19 19 18 18 18 18 18 18 18 18 17 17 17 17 17 17 17 17 16 16 16 16 16 16 16 16 16 15 16
25 24 24 23 23 22 22 21 21 21 20 20 20 19 19 19 19 18 18 18 18 18 18 18 17 17 17 17 17 17 17 17 17 16 16 16 16 16 15 15 15 15 15
25 24 24 23 22 22 21 21 21 20 20 20 19 19 19 19 19 19 18 18 18 18 18 18 17 17 17 17 17 17 17 16 16 16 16 16 16 16 15 15 15 15 15
24 24 23 23 22 22 21 21 20 20 20 20 20 19 19 19 19 18 18 18 18 18 18 17 17 17 17 17 17 16 16 16 16 16 16 16 16 16 15 15 15 15 14
24 23 23 22 22 21 21 21 20 20 20 20 20 19 19 19 19 18 18 18 18 18 17 17 17 17 17 16 16 16 16 16 16 15 15 15 15 15 15 15 14 14 14
23 23 22 21 21 21 21 20 20 20 20 20 19 19 19 19 19 18 18 18 18 18 17 17 17 17 16 16 16 16 16 16 15 15 15 15 15 15 15 14 14 14 14
22 22 21 21 20 20 20 20 20 20 20 19 19 19 19 19 18 18 18 18 18 17 17 17 17 17 16 16 16 15 15 15 15 15 15 15 15 15 14 14 14 14 14
22 22 21 21 20 20 20 20 20 20 19 19 19 19 19 19 18 18 18 18 18 17 17 17 16 16 16 16 16 15 15 15 15 15 14 14 14 14 14 14 14 14 13
22 21 21 20 20 20 20 20 20 20 19 19 19 19 18 18 18 18 17 17 17 17 17 16 16 16 16 16 15 15 15 15 14 14 14 13 14 14 14 14 14 13 13
21 21 21 20 20 20 20 20 19 19 19 19 19 18 18 18 17 17 17 17 17 17 16 16 16 16 16 15 15 15 14 14 14 14 14 14 14 13 13 13 13 13 13
20 20 20 20 20 20 19 19 19 19 19 18 18 18 18 17 17 17 17 17 17 16 16 16 16 15 15 15 15 14 14 14 14 13 13 13 13 13 13 13 12 12 12
19 19 19 19 19 19 19 19 19 19 18 18 18 18 18 17 17 17 17 16 16 16 16 15 15 15 15 15 15 14 13 13 13 13 13 13 13 13 13 12 12 12 12
18 18 18 19 18 18 18 18 18 18 18 18 18 18 17 17 17 17 16 16 16 15 15 15 15 14 14 14 14 14 13 13 13 13 13 13 13 13 12 12 12 12 11
18 18 18 18 18 18 18 18 18 18 17 17 17 17 17 17 16 16 16 15 15 15 15 14 14 14 14 14 14 14 13 13 12 12 12 12 12 12 12 12 12 11 11
17 17 17 17 17 17 17 17 17 17 16 16 16 16 16 16 16 16 15 15 15 15 15 14 14 14 13 13 13 13 13 13 12 12 12 12 12 12 11 11 11 11 11
17 17 17 17 17 17 17 17 16 16 16 16 16 16 16 16 15 15 15 15 15 15 14 14 14 13 13 13 12 12 12 12 12 12 12 12 11 11 11 11 11 10 10
16 16 16 16 16 16 16 16 16 16 15 15 15 15 15 15 15 15 14 14 14 14 14 14 13 13 13 13 12 12 12 12 11 11 11 11 11 11 10 10 10 10 10
15 15 15 15 15 16 15 15 15 15 15 15 14 14 14 14 14 14 14 14 14 13 13 13 13 13 13 12 12 12 12 11 11 11 11 10 10 10 10 10 10 10 10
Wind_Speed
11 11 12 12 11 11 11 11 10 10 8 6 6 5 5 4 4 4 4 5 4 5 4 3 3 3 3 3 3 3 3 3 3 2 3 3 4 3 3 3 3 3 4
11 12 12 12 13 12 12 11 11 11 10 7 5 4 4 4 4 3 3 5 5 5 5 4 3 3 3 3 4 3 3 3 3 3 3 3 3 3 3 2 3 3 3
12 12 13 13 13 13 13 11 12 11 10 8 6 5 4 4 4 4 4 4 4 4 4 4 4 3 3 3 3 3 4 3 4 4 3 3 2 1 2 2 2 2 2
12 12 13 13 13 13 12 12 11 11 10 10 8 7 6 5 4 3 3 3 4 4 4 4 3 3 3 3 4 3 3 4 4 4 4 4 3 3 2 2 2 2 3
12 12 12 12 12 12 11 11 11 11 10 10 9 8 6 5 4 3 3 3 3 3 4 4 3 3 3 3 3 2 3 4 5 4 4 4 4 5 4 4 3 2 2
11 11 11 11 10 11 11 11 11 10 10 10 9 9 7 6 4 4 4 4 3 3 4 4 4 4 3 3 4 3 4 4 5 5 4 5 4 5 5 5 5 4 3
10 11 11 11 11 11 12 12 12 11 11 11 10 9 8 7 7 6 5 4 3 3 4 4 4 4 4 4 4 4 4 4 5 5 5 5 5 5 5 5 5 5 4
9 10 11 11 11 11 12 12 12 11 12 11 10 9 9 7 6 6 5 4 4 3 3 4 4 4 4 4 4 4 4 4 4 5 5 5 5 5 5 5 5 5 5
8 9 10 11 11 11 12 12 12 11 11 11 10 9 9 8 6 6 6 5 4 4 4 4 4 4 4 4 4 3 3 3 4 4 4 5 4 5 5 5 5 5 5
7 8 8 10 10 11 11 11 12 11 11 10 10 8 9 8 7 6 6 5 5 4 4 5 4 4 3 3 3 3 3 3 3 3 3 4 4 4 5 5 5 6 6
7 7 7 8 9 10 10 10 10 11 10 10 9 9 9 8 8 7 6 6 5 5 5 4 4 4 3 3 3 3 3 3 3 3 4 4 5 4 4 5 5 5 5
5 6 6 7 8 9 9 9 9 9 9 9 9 9 9 8 8 7 6 5 5 5 5 4 4 4 3 3 3 3 3 3 4 4 4 4 3 4 4 4 5 5 5
4 5 6 6 7 8 8 8 9 9 8 8 9 8 9 9 8 7 7 6 6 5 5 4 4 4 3 3 3 3 3 3 3 4 3 3 3 4 3 4 4 4 4
4 4 5 5 5 7 7 7 8 8 8 8 9 9 8 8 8 7 7 7 6 6 5 4 4 4 3 3 3 3 3 3 3 3 3 3 3 4 4 4 4 4 4
3 3 4 4 5 6 6 6 6 6 7 8 8 9 8 7 7 7 6 6 6 6 5 5 4 4 3 3 3 3 3 2 2 2 2 2 1 2 3 3 3 3 4
2 2 3 4 5 6 6 6 6 6 7 8 8 8 8 8 7 7 6 6 6 5 5 5 4 4 3 2 0 3 2 2 2 2 1 1 1 1 1 1 2 3 4
1 2 3 3 4 5 6 7 6 6 7 8 7 8 8 8 8 7 7 6 6 6 5 5 4 4 3 3 2 2 2 1 1 1 2 2 1 1 1 2 3 2 1
3 2 2 3 3 4 5 6 6 6 6 6 7 7 8 8 7 7 6 6 5 5 5 5 5 4 4 4 2 3 2 1 1 1 2 2 1 1 2 1 1 1 1
4 3 3 3 3 4 5 7 6 6 6 6 6 7 7 7 8 7 7 6 6 5 5 5 5 5 4 4 3 4 3 2 2 1 1 2 1 1 2 1 1 1 1
5 4 3 3 3 4 5 7 7 7 7 7 6 6 6 7 8 8 7 6 6 6 5 5 4 4 3 4 3 4 3 2 2 2 2 1 1 1 1 1 2 2 1
5 4 3 2 2 3 5 7 7 8 7 7 7 7 7 7 8 8 7 7 6 5 5 5 4 3 3 4 3 2 3 2 2 2 2 2 4 2 1 2 1 1 2
5 4 3 3 2 3 5 6 6 6 6 7 7 7 7 7 7 8 7 7 6 6 6 5 4 3 3 2 3 2 2 3 2 2 1 2 4 4 2 1 1 1 3
5 5 4 3 2 3 4 6 5 5 6 6 7 6 6 6 7 8 8 7 7 6 6 5 5 4 3 4 5 5 3 3 2 1 2 2 3 4 4 4 3 3 2
5 4 4 3 3 2 3 4 4 5 6 7 6 6 6 6 6 6 6 6 6 6 5 5 4 4 4 3 4 4 4 5 4 3 4 6 5 4 2 3 4 3 1
4 4 3 3 3 3 3 3 4 5 6 6 5 5 5 7 6 4 3 4 3 3 4 4 4 4 4 2 1 2 2 2 2 3 3 3 3 3 3 3 2 2 2
4 4 3 3 3 3 3 3 3 5 6 6 5 4 5 6 6 6 4 4 3 4 3 3 0 2 4 5 3 1 1 1 1 3 3 3 3 3 3 3 3 3 3
Wind_Direction
200 196 197 198 196 195 193 194 195 189 191 194 201 201 203 205 208 215 210 218 223 218 230 235 210 226 222 228 220 219 210 218 205 230 247 239 229 228 228 232 240 229 229
197 196 197 198 199 196 195 193 194 193 196 195 203 211 216 214 212 222 213 223 223 218 216 224 225 221 227 226 228 229 239 228 216 236 248 237 213 203 218 215 224 238 231
201 197 198 200 200 198 196 196 194 192 198 196 199 201 200 218 206 208 209 217 221 216 227 219 232 228 240 228 231 229 234 244 236 237 250 257 256 273 200 216 229 246 255
203 199 197 198 200 198 195 194 192 193 193 196 205 209 215 219 215 212 197 196 210 216 215 217 225 237 243 239 241 232 247 251 249 241 249 270 280 261 247 220 224 237 250
203 200 199 197 197 194 191 189 188 191 192 198 202 211 220 217 205 199 190 209 204 215 221 220 227 230 241 245 259 257 258 253 258 253 251 254 249 247 250 258 255 248 249
199 196 194 190 190 189 188 185 183 187 191 198 203 210 214 213 208 204 200 208 206 211 213 214 222 230 235 232 238 244 243 254 264 266 257 252 251 250 246 254 255 261 260
192 190 188 185 185 186 187 185 183 186 191 198 204 206 209 209 210 214 206 214 214 208 206 216 219 230 228 231 233 234 255 253 257 258 261 260 259 261 259 255 259 268 267
183 184 184 184 185 186 187 186 185 188 191 197 201 204 206 212 213 211 218 207 217 220 210 212 220 228 230 231 229 237 240 248 260 264 266 265 259 258 255 250 258 265 262
176 180 179 183 185 186 188 189 186 189 193 194 194 198 202 210 211 205 212 215 211 211 206 211 212 216 221 232 235 242 247 248 256 260 255 261 264 260 257 255 253 259 266
171 174 177 182 183 183 183 186 187 190 193 193 196 196 197 201 205 209 210 215 212 214 210 205 207 213 217 222 228 233 232 239 248 261 268 266 266 261 255 255 255 257 259
170 174 175 180 180 177 174 179 183 188 191 193 194 195 195 197 199 202 206 208 207 203 205 204 204 204 208 212 217 232 234 239 247 255 259 262 270 266 260 254 250 250 249
165 167 169 172 175 177 177 177 179 182 186 187 189 191 192 194 196 195 196 194 193 194 193 195 197 202 201 203 216 231 239 243 253 259 265 269 266 262 262 260 253 250 246
160 163 162 165 173 175 176 179 182 183 183 183 184 183 187 189 192 190 186 184 184 186 187 186 190 195 197 203 217 231 242 251 258 262 263 265 266 267 266 262 257 252 249
154 165 165 169 174 175 175 180 184 182 181 182 182 182 186 188 186 182 180 179 178 179 181 180 181 191 197 203 216 224 235 242 249 257 259 262 266 272 269 258 254 252 250
159 166 173 174 177 175 177 180 181 179 180 182 183 181 180 180 179 175 175 173 175 176 173 174 179 188 198 209 221 224 229 238 244 249 256 263 290 316 290 274 262 248 243
191 184 184 180 182 183 182 180 183 179 179 183 182 175 173 173 177 179 176 171 171 174 176 179 182 188 192 111 92 262 225 240 256 263 259 234 230 250 227 277 283 269 243
258 223 205 202 196 195 190 188 185 179 181 184 182 175 174 175 177 177 174 175 174 176 183 187 189 189 159 127 149 286 251 225 255 274 275 275 291 256 274 216 216 228 231
314 283 245 216 206 201 192 190 182 180 182 180 181 181 178 177 176 176 176 176 178 183 186 189 191 191 167 147 169 251 230 222 203 233 254 260 279 338 306 255 210 195 182
317 299 271 239 209 201 189 181 182 182 182 181 181 184 182 180 177 178 182 178 177 179 183 190 193 189 172 159 188 243 215 212 217 235 268 267 217 28 313 220 173 148 135
330 313 280 240 210 198 187 182 181 182 187 186 180 178 179 179 183 180 182 181 179 180 182 181 185 188 185 160 181 248 221 207 206 195 185 91 80 78 324 198 180 175 172
326 313 288 251 220 203 192 190 190 191 189 181 175 177 178 183 182 177 177 177 178 176 178 177 182 187 182 159 166 248 238 219 212 210 192 126 125 137 187 255 215 229 238
334 327 312 288 261 223 203 200 201 195 182 176 176 175 179 184 176 172 171 175 175 175 179 184 190 186 177 169 166 181 259 295 215 221 189 117 134 153 178 204 112 241 246
336 331 319 303 280 242 221 213 204 188 180 176 175 172 171 173 174 174 172 176 180 185 184 188 193 192 183 167 162 174 198 246 233 187 93 116 161 180 179 164 190 216 210
331 331 324 316 304 283 256 232 209 187 181 181 175 169 167 168 169 172 175 180 183 186 183 188 197 192 186 187 182 186 188 195 207 202 173 182 193 205 186 182 196 213 216
326 329 325 329 312 296 276 247 210 189 181 176 168 170 173 161 160 159 156 179 173 184 192 195 196 195 199 171 108 217 209 218 202 198 193 190 179 187 186 193 202 215 215
320 321 318 314 306 299 285 266 218 191 180 174 168 172 169 161 159 156 144 74 98 99 88 54 78 144 104 112 123 132 50 44 229 216 203 204 207 211 207 208 211 219 226
Height
1538 1540 1542 1544 1546 1547 1548 1550 1551 1552 1554 1556 1557 1558 1559 1559 1560 1560 1560 1560 1561 1562 1562 1564 1564 1564 1565 1566 1566 1567 1567 1567 1567 1568 1568 1568 1568 1568 1567 1568 1568 1568 1568
1535 1537 1539 1541 1543 1544 1546 1547 1549 1551 1552 1554 1555 1556 1557 1558 1558 1559 1558 1559 1559 1560 1562 1562 1563 1563 1564 1564 1564 1564 1565 1565 1566 1566 1566 1566 1567 1565 1566 1566 1566 1566 1567
1531 1534 1536 1538 1540 1542 1543 1545 1547 1548 1550 1552 1554 1555 1555 1556 1557 1557 1557 1557 1558 1559 1559 1560 1561 1561 1562 1563 1562 1563 1563 1564 1564 1564 1565 1565 1564 1564 1564 1564 1564 1564 1563
1528 1530 1533 1535 1537 1539 1541 1543 1545 1546 1548 1549 1551 1553 1554 1555 1555 1555 1556 1556 1556 1557 1558 1559 1559 1559 1560 1561 1561 1561 1561 1562 1562 1562 1562 1563 1562 1563 1562 1562 1561 1561 1561
1523 1526 1529 1532 1534 1537 1539 1540 1542 1544 1545 1547 1549 1550 1552 1553 1554 1554 1554 1554 1555 1556 1556 1557 1557 1557 1558 1558 1559 1559 1559 1560 1560 1560 1560 1560 1560 1560 1560 1559 1559 1559 1559
1520 1523 1526 1529 1531 1534 1536 1538 1539 1541 1543 1545 1546 1548 1549 1550 1552 1552 1553 1553 1554 1554 1554 1555 1555 1556 1556 1556 1556 1556 1557 1557 1557 1557 1558 1557 1557 1557 1557 1557 1556 1556 1556
1516 1520 1523 1525 1528 1530 1533 1535 1536 1538 1540 1542 1544 1545 1547 1548 1549 1550 1551 1552 1553 1553 1553 1553 1553 1554 1554 1554 1554 1554 1554 1554 1554 1554 1554 1554 1554 1554 1554 1554 1553 1553 1553
1513 1516 1519 1522 1525 1527 1530 1532 1534 1535 1537 1539 1541 1543 1544 1546 1547 1547 1549 1549 1550 1551 1551 1551 1551 1552 1552 1552 1552 1553 1552 1552 1552 1551 1551 1551 1551 1551 1551 1551 1551 1550 1550
1511 1514 1517 1519 1522 1524 1526 1529 1530 1532 1534 1536 1538 1539 1541 1543 1544 1545 1546 1547 1547 1549 1549 1549 1549 1550 1550 1550 1550 1551 1550 1550 1550 1549 1548 1548 1548 1548 1548 1548 1548 1549 1548
1509 1512 1514 1517 1519 1521 1523 1526 1528 1530 1532 1533 1535 1537 1538 1539 1541 1542 1543 1544 1545 1546 1546 1547 1547 1548 1548 1548 1548 1548 1548 1548 1547 1546 1546 1545 1545 1544 1544 1544 1544 1545 1545
1508 1510 1512 1515 1517 1519 1521 1522 1525 1527 1529 1530 1532 1534 1535 1537 1538 1539 1540 1541 1542 1543 1543 1544 1545 1545 1546 1546 1546 1546 1546 1545 1545 1544 1543 1542 1541 1541 1541 1541 1541 1541 1541
1507 1509 1511 1513 1515 1517 1519 1520 1522 1524 1526 1528 1529 1531 1532 1534 1535 1536 1537 1538 1539 1540 1541 1541 1542 1543 1543 1544 1544 1543 1543 1543 1542 1541 1541 1540 1539 1538 1538 1538 1537 1538 1538
1506 1508 1509 1511 1513 1515 1517 1519 1520 1522 1523 1525 1527 1528 1530 1531 1533 1534 1535 1536 1537 1538 1539 1539 1540 1541 1541 1542 1541 1541 1541 1540 1540 1539 1538 1537 1536 1535 1535 1534 1534 1534 1535
1506 1507 1508 1510 1511 1513 1514 1516 1518 1519 1521 1522 1524 1525 1527 1529 1530 1531 1533 1534 1535 1536 1537 1537 1538 1538 1539 1539 1539 1539 1538 1537 1537 1536 1535 1534 1534 1533 1532 1532 1531 1531 1531
1505 1506 1507 1508 1509 1511 1512 1514 1516 1517 1518 1520 1521 1523 1525 1527 1528 1529 1531 1532 1532 1534 1535 1535 1536 1536 1536 1536 1536 1536 1536 1535 1534 1534 1533 1532 1531 1530 1530 1529 1529 1529 1528
1503 1504 1505 1506 1507 1508 1509 1511 1513 1514 1516 1517 1519 1520 1523 1524 1526 1527 1529 1530 1530 1531 1532 1533 1533 1534 1534 1533 1533 1534 1533 1532 1532 1531 1530 1530 1529 1528 1527 1527 1526 1526 1526
1502 1503 1503 1504 1505 1506 1507 1509 1510 1512 1514 1516 1517 1518 1520 1522 1523 1525 1527 1528 1528 1529 1530 1531 1531 1531 1531 1531 1531 1531 1531 1529 1529 1528 1528 1527 1526 1526 1525 1524 1523 1523 1523
1501 1501 1502 1502 1503 1504 1505 1506 1508 1510 1512 1513 1515 1516 1518 1520 1521 1523 1524 1525 1526 1527 1528 1529 1529 1529 1528 1528 1528 1528 1528 1526 1525 1525 1524 1524 1523 1523 1523 1522 1522 1521 1521
1499 1499 1500 1500 1501 1501 1502 1503 1505 1507 1509 1510 1511 1513 1515 1517 1518 1520 1521 1522 1523 1524 1525 1526 1526 1526 1526 1525 1525 1525 1525 1524 1523 1522 1522 1521 1521 1520 1520 1520 1520 1520 1519
1497 1497 1497 1497 1498 1498 1499 1500 1501 1502 1504 1506 1508 1510 1512 1514 1516 1516 1518 1519 1520 1521 1522 1523 1523 1523 1523 1523 1522 1522 1523 1522 1521 1520 1520 1519 1518 1518 1518 1518 1518 1518 1518
1495 1495 1495 1495 1495 1496 1496 1497 1497 1498 1501 1503 1505 1506 1508 1509 1511 1512 1514 1516 1517 1518 1519 1520 1520 1520 1520 1520 1520 1520 1520 1520 1520 1519 1518 1517 1516 1516 1516 1516 1516 1516 1517
1493 1492 1492 1492 1492 1493 1494 1494 1495 1496 1498 1499 1501 1502 1504 1506 1507 1509 1510 1513 1514 1515 1516 1517 1518 1518 1517 1517 1517 1517 1517 1517 1517 1516 1516 1515 1514 1514 1514 1514 1514 1515 1515
1491 1490 1490 1489 1489 1490 1491 1491 1492 1494 1495 1496 1497 1498 1500 1501 1503 1505 1506 1508 1510 1511 1512 1514 1515 1515 1515 1514 1514 1515 1515 1514 1514 1514 1513 1513 1512 1512 1512 1512 1512 1513 1514
1489 1488 1487 1487 1487 1487 1488 1489 1489 1490 1492 1492 1493 1494 1495 1497 1499 1501 1503 1505 1506 1507 1508 1510 1510 1511 1511 1511 1511 1512 1512 1512 1512 1512 1511 1511 1511 1511 1511 1511 1511 1512 1512
1487 1486 1485 1484 1484 1485 1485 1485 1485 1486 1487 1488 1489 1490 1491 1492 1495 1497 1499 1502 1503 1504 1505 1506 1507 1508 1508 1508 1509 1509 1510 1510 1510 1510 1510 1510 1510 1509 1509 1510 1510 1510 1510
1484 1483 1482 1481 1482 1482 1481 1481 1482 1482 1483 1484 1485 1487 1488 1489 1491 1494 1496 1498 1499 1500 1501 1503 1504 1504 1505 1505 1506 1506 1507 1507 1507 1508 1508 1508 1508 1508 1508 1508 1508 1508 1508